Weather History for Rugby, ND

Change the Weather History Date:

Tuesday, April 2, 2013

  Actual Average Record
Temperature  
Mean Temperature 12 °F -  
Max Temperature 24 °F 43 °F 73 °F (1988)
Min Temperature 0 °F 23 °F -6 °F (1975)
Degree Days  
Heating Degree Days 53    
Moisture  
Dew Point 8 °F    
Average Humidity 81    
Maximum Humidity 93    
Minimum Humidity 59    
Precipitation  
Precipitation 0.00 in - - ()
Sea Level Pressure  
Sea Level Pressure 30.27 in    
Wind  
Wind Speed 4 mph (SE)    
Max Wind Speed 20 mph    
Max Gust Speed 26 mph    
Visibility 10 miles    
Events Snow    
Averages and records for this station are not official NWS values.
T = Trace of Precipitation, MM = Missing Value Source: NWS Daily Summary

Daily Weather History Graph

Daily Weather History Graph

Search for Another Location

Airport:

Trip Planner

Search our weather history database for the weather conditions in past years. The results will help you decide how hot, cold, wet, or windy it might be!

Date:

Astronomy

Apr. 02, 2013 Rise Set
Actual Time 7:15 AM CDT 8:12 PM CDT
Civil Twilight 6:43 AM CDT 8:44 PM CDT
Nautical Twilight 6:05 AM CDT 9:22 PM CDT
Astronomical Twilight 5:25 AM CDT 10:03 PM CDT
Moon 2:38 AM CDT (4/2) 11:49 AM CDT (4/2)
Length of Visible Light 14h 00m
Length of Day
12h 57m
Waning Gibbous, 55% of the Moon is Illuminated
Apr 2
Waning Gibbous
Apr 2
Last Quarter
Apr 10
New
Apr 18
First Quarter
Apr 25
Full

Hourly Weather History & Observations

Time (CDT) Temp. Windchill Dew Point Humidity Pressure Visibility Wind Dir Wind Speed Gust Speed Precip Events Conditions
12:15 AM 3.2 °F - 1.4 °F 92% 30.23 in 10.0 mi Calm Calm - N/A   Clear
12:35 AM 5.0 °F -5.6 °F 3.2 °F 92% 30.23 in 10.0 mi SW 5.8 mph - N/A   Clear
12:55 AM 6.8 °F -3.5 °F 5.0 °F 92% 30.23 in 10.0 mi WSW 5.8 mph - N/A   Clear
1:15 AM 3.2 °F - -0.4 °F 85% 30.23 in 10.0 mi Calm Calm - N/A   Clear
1:35 AM 1.4 °F - -0.4 °F 92% 30.24 in 9.0 mi Calm Calm - N/A   Clear
1:55 AM 1.4 °F - -0.4 °F 92% 30.24 in 7.0 mi Calm Calm - N/A   Clear
2:15 AM 3.2 °F - 1.4 °F 92% 30.24 in 7.0 mi Calm Calm - N/A   Clear
2:35 AM 5.0 °F - 3.2 °F 92% 30.24 in 7.0 mi Calm Calm - N/A   Partly Cloudy
2:55 AM 6.8 °F - 5.0 °F 92% 30.24 in 7.0 mi Calm Calm - N/A   Partly Cloudy
3:15 AM 6.8 °F - 5.0 °F 92% 30.25 in 10.0 mi Calm Calm - N/A   Scattered Clouds
3:35 AM 5.0 °F - 1.4 °F 85% 30.25 in 10.0 mi Calm Calm - N/A   Scattered Clouds
3:55 AM 5.0 °F - 1.4 °F 85% 30.25 in 10.0 mi Calm Calm - N/A   Overcast
4:15 AM 1.4 °F - -0.4 °F 92% 30.25 in 10.0 mi Calm Calm - N/A   Overcast
4:35 AM 1.4 °F -8.3 °F -0.4 °F 92% 30.25 in 10.0 mi SSW 4.6 mph - N/A   Overcast
4:55 AM 3.2 °F - -0.4 °F 85% 30.25 in 10.0 mi Calm Calm - N/A   Mostly Cloudy
5:15 AM -0.4 °F - -4.0 °F 85% 30.26 in 10.0 mi Calm Calm - N/A   Clear
5:35 AM -0.4 °F - -4.0 °F 85% 30.26 in 10.0 mi Calm Calm - N/A   Partly Cloudy
5:55 AM -0.4 °F - -4.0 °F 85% 30.27 in 10.0 mi Calm Calm - N/A   Mostly Cloudy
6:15 AM -0.4 °F - -2.2 °F 92% 30.27 in 10.0 mi Calm Calm - N/A   Mostly Cloudy
6:35 AM 3.2 °F - -0.4 °F 85% 30.27 in 10.0 mi Calm Calm - N/A   Scattered Clouds
6:55 AM 5.0 °F - 1.4 °F 85% 30.27 in 10.0 mi Calm Calm - N/A   Partly Cloudy
7:15 AM 1.4 °F - -0.4 °F 92% 30.27 in 9.0 mi Calm Calm - N/A   Mostly Cloudy
7:35 AM 5.0 °F - 1.4 °F 85% 30.28 in 9.0 mi Calm Calm - N/A   Mostly Cloudy
7:55 AM 5.0 °F -5.6 °F 1.4 °F 85% 30.28 in 8.0 mi South 5.8 mph - N/A   Mostly Cloudy
8:15 AM 3.2 °F - -0.4 °F 85% 30.29 in 9.0 mi Calm Calm - N/A   Overcast
8:35 AM 5.0 °F - 1.4 °F 85% 30.29 in 8.0 mi Calm Calm - N/A   Mostly Cloudy
8:55 AM 5.0 °F - 1.4 °F 85% 30.30 in 9.0 mi Calm Calm - N/A   Mostly Cloudy
9:35 AM 5.0 °F - 1.4 °F 85% 30.30 in 9.0 mi Calm Calm - N/A Snow Light Snow
9:55 AM 6.8 °F - 3.2 °F 85% 30.31 in 8.0 mi Calm Calm - N/A   Clear
10:15 AM 6.8 °F -0.1 °F 3.2 °F 85% 30.31 in 8.0 mi NE 3.5 mph - N/A   Clear
10:35 AM 8.6 °F - 6.8 °F 92% 30.31 in 7.0 mi Calm Calm - N/A   Clear
10:55 AM 10.4 °F - 8.6 °F 92% 30.31 in 8.0 mi Calm Calm - N/A   Clear
11:15 AM 14.0 °F - 10.4 °F 86% 30.31 in 8.0 mi Calm Calm - N/A   Clear
11:35 AM 14.0 °F - 12.2 °F 93% 30.32 in 9.0 mi Calm Calm - N/A   Clear
11:55 AM 15.8 °F 8.6 °F 12.2 °F 86% 30.33 in 10.0 mi East 4.6 mph - N/A   Clear
12:15 PM 17.6 °F 9.3 °F 12.2 °F 79% 30.33 in 10.0 mi East 5.8 mph - N/A   Clear
12:35 PM 19.4 °F 7.9 °F 12.2 °F 74% 30.32 in 10.0 mi East 10.4 mph - N/A   Clear
12:55 PM 19.4 °F 8.6 °F 14.0 °F 80% 30.32 in 10.0 mi East 9.2 mph - N/A   Clear
1:15 PM 19.4 °F 8.6 °F 14.0 °F 80% 30.32 in 10.0 mi East 9.2 mph - N/A   Clear
1:35 PM 21.2 °F 10.9 °F 14.0 °F 74% 30.32 in 10.0 mi East 9.2 mph - N/A   Clear
1:55 PM 23.0 °F 14.7 °F 15.8 °F 74% 30.32 in 10.0 mi ESE 6.9 mph - N/A   Clear
2:15 PM 23.0 °F 14.7 °F 10.4 °F 59% 30.31 in 10.0 mi SE 6.9 mph - N/A   Clear
2:35 PM 23.0 °F 14.7 °F 14.0 °F 68% 30.31 in 10.0 mi SSE 6.9 mph - N/A   Clear
2:55 PM 23.0 °F 15.8 °F 14.0 °F 68% 30.31 in 10.0 mi SE 5.8 mph - N/A   Clear
3:15 PM 24.8 °F 16.9 °F 14.0 °F 64% 30.31 in 10.0 mi SE 6.9 mph - N/A   Clear
3:35 PM 24.8 °F 16.9 °F 15.8 °F 69% 30.31 in 10.0 mi SE 6.9 mph - N/A   Clear
3:55 PM 24.8 °F 16.1 °F 15.8 °F 69% 30.31 in 10.0 mi ESE 8.1 mph - N/A   Clear
4:15 PM 24.8 °F 15.3 °F 15.8 °F 69% 30.30 in 10.0 mi SE 9.2 mph - N/A   Clear
4:35 PM 24.8 °F 15.3 °F 15.8 °F 69% 30.29 in 10.0 mi ESE 9.2 mph - N/A   Clear
4:55 PM 24.8 °F 14.6 °F 17.6 °F 74% 30.29 in 10.0 mi ESE 10.4 mph - N/A   Clear
5:15 PM 24.8 °F 14.6 °F 17.6 °F 74% 30.28 in 10.0 mi ESE 10.4 mph - N/A   Clear
5:35 PM 24.8 °F 14.6 °F 15.8 °F 69% 30.28 in 10.0 mi ESE 10.4 mph - N/A   Clear
5:55 PM 23.0 °F 12.4 °F 15.8 °F 74% 30.28 in 10.0 mi ESE 10.4 mph - N/A   Clear
6:15 PM 23.0 °F 13.1 °F 17.6 °F 80% 30.27 in 10.0 mi ESE 9.2 mph - N/A   Clear
6:35 PM 23.0 °F 12.4 °F 15.8 °F 74% 30.27 in 10.0 mi SE 10.4 mph - N/A   Clear
6:55 PM 23.0 °F 11.1 °F 15.8 °F 74% 30.26 in 10.0 mi SE 12.7 mph - N/A   Clear
7:15 PM 23.0 °F 11.7 °F 15.8 °F 74% 30.25 in 10.0 mi SE 11.5 mph - N/A   Clear
7:35 PM 23.0 °F 11.7 °F 15.8 °F 74% 30.24 in 10.0 mi SE 11.5 mph - N/A   Clear
7:55 PM 23.0 °F 12.4 °F 15.8 °F 74% 30.24 in 10.0 mi SE 10.4 mph - N/A   Clear
8:15 PM 19.4 °F 8.6 °F 14.0 °F 80% 30.23 in 10.0 mi SE 9.2 mph - N/A   Clear
8:35 PM 19.4 °F 7.9 °F 14.0 °F 80% 30.23 in 10.0 mi SE 10.4 mph - N/A   Clear
8:55 PM 19.4 °F 8.6 °F 14.0 °F 80% 30.22 in 10.0 mi SE 9.2 mph - N/A   Clear
9:15 PM 19.4 °F 7.2 °F 14.0 °F 80% 30.22 in 10.0 mi SE 11.5 mph - N/A   Clear
9:35 PM 17.6 °F 5.0 °F 14.0 °F 86% 30.22 in 10.0 mi SE 11.5 mph - N/A   Clear
9:55 PM 19.4 °F 6.6 °F 14.0 °F 80% 30.21 in 10.0 mi SE 12.7 mph - N/A   Clear
10:15 PM 19.4 °F 5.5 °F 14.0 °F 80% 30.20 in 10.0 mi SE 15.0 mph 20.7 mph N/A   Clear
10:35 PM 19.4 °F 6.0 °F 14.0 °F 80% 30.20 in 10.0 mi SE 13.8 mph 19.6 mph N/A   Clear
10:55 PM 19.4 °F 5.5 °F 14.0 °F 80% 30.19 in 10.0 mi SE 15.0 mph - N/A   Clear
11:15 PM 19.4 °F 5.0 °F 14.0 °F 80% 30.18 in 10.0 mi SE 16.1 mph 25.3 mph N/A   Clear
11:35 PM 21.2 °F 6.0 °F 14.0 °F 74% 30.17 in 10.0 mi SSE 19.6 mph 26.5 mph N/A   Clear
11:55 PM 21.2 °F 6.4 °F 14.0 °F 74% 30.17 in 10.0 mi SSE 18.4 mph 25.3 mph N/A   Clear